RPA24 PHOG-PHTO

Flight info

Callsign RPA24
Flight time 0h 37m
Altitude 19000
Route ONOHI2 BARBY PARIS V15 ITO
Aircraft B737/M-SDE2E3FGHIRWXY/LB1

Departure

Time 2026-04-24 01:10
Airport Kahului International Airport (PHOG)

Arrival

Time 2026-04-24 01:47
Airport Hilo International Airport (PHTO)
Time Latitude Longitude Altitude Speed Heading
2026-04-24 00:48 20.89362 -156.43625 68 ft 0 kts 304°
2026-04-24 00:59 20.89356 -156.43616 69 ft 2 kts 304°
2026-04-24 00:59 20.89348 -156.43602 70 ft 2 kts 303°
2026-04-24 01:00 20.89339 -156.43588 71 ft 2 kts 303°
2026-04-24 01:00 20.89333 -156.43579 71 ft 0 kts 303°
2026-04-24 01:00 20.89327 -156.43567 72 ft 2 kts 280°
2026-04-24 01:00 20.89327 -156.43550 73 ft 2 kts 255°
2026-04-24 01:01 20.89333 -156.43536 73 ft 2 kts 230°
2026-04-24 01:01 20.89339 -156.43530 73 ft 1 kts 214°
2026-04-24 01:01 20.89344 -156.43527 73 ft 0 kts 214°
2026-04-24 01:03 20.89326 -156.43539 73 ft 9 kts 214°
2026-04-24 01:04 20.89243 -156.43600 74 ft 16 kts 215°
2026-04-24 01:04 20.89191 -156.43639 74 ft 15 kts 215°
2026-04-24 01:04 20.89103 -156.43712 74 ft 16 kts 218°
2026-04-24 01:05 20.89012 -156.43718 76 ft 7 kts 150°
2026-04-24 01:05 20.89002 -156.43712 77 ft 0 kts 151°
2026-04-24 01:07 20.88992 -156.43706 77 ft 6 kts 148°
2026-04-24 01:08 20.88957 -156.43665 79 ft 17 kts 118°
2026-04-24 01:08 20.89002 -156.43568 81 ft 14 kts 30°
2026-04-24 01:08 20.89058 -156.43535 81 ft 14 kts 29°
2026-04-24 01:08 20.89065 -156.43530 81 ft 14 kts 29°
2026-04-24 01:09 20.89078 -156.43521 81 ft 14 kts 40°
2026-04-24 01:09 20.89163 -156.43449 81 ft 19 kts 35°
2026-04-24 01:09 20.89540 -156.43169 63 ft 108 kts 35°
2026-04-24 01:09 20.90320 -156.42575 240 ft 156 kts 34°
2026-04-24 01:10 20.91188 -156.41896 1049 ft 159 kts 36°
2026-04-24 01:10 20.92046 -156.41266 2014 ft 152 kts 33°
2026-04-24 01:10 20.92993 -156.40655 2634 ft 168 kts 38°
2026-04-24 01:10 20.93592 -156.39578 3266 ft 183 kts 81°
2026-04-24 01:11 20.93347 -156.38200 3895 ft 202 kts 114°
2026-04-24 01:11 20.92542 -156.36883 4506 ft 224 kts 124°
2026-04-24 01:11 20.91615 -156.35487 5242 ft 242 kts 123°
2026-04-24 01:11 20.90624 -156.33954 5990 ft 259 kts 123°
2026-04-24 01:12 20.89587 -156.32329 6710 ft 277 kts 122°
2026-04-24 01:12 20.88628 -156.30518 7662 ft 285 kts 111°
2026-04-24 01:12 20.88189 -156.28447 8698 ft 290 kts 94°
2026-04-24 01:12 20.88085 -156.26312 9703 ft 295 kts 90°
2026-04-24 01:13 20.88020 -156.24123 10674 ft 303 kts 90°
2026-04-24 01:13 20.87914 -156.21815 11415 ft 320 kts 91°
2026-04-24 01:13 20.87762 -156.19374 12120 ft 339 kts 91°
2026-04-24 01:13 20.87583 -156.16817 12784 ft 356 kts 92°
2026-04-24 01:14 20.87389 -156.14119 13420 ft 374 kts 91°
2026-04-24 01:14 20.87185 -156.11291 14024 ft 391 kts 91°
2026-04-24 01:14 20.86971 -156.08350 14570 ft 407 kts 92°
2026-04-24 01:14 20.86748 -156.05284 15126 ft 423 kts 92°
2026-04-24 01:15 20.86340 -156.02133 15666 ft 441 kts 102°
2026-04-24 01:15 20.85063 -155.99114 16512 ft 451 kts 121°
2026-04-24 01:15 20.83104 -155.96490 17337 ft 458 kts 130°
2026-04-24 01:15 20.80930 -155.94002 18171 ft 463 kts 133°
2026-04-24 01:16 20.78663 -155.91542 18788 ft 467 kts 134°
2026-04-24 01:16 20.76359 -155.89075 19017 ft 467 kts 134°
2026-04-24 01:16 20.74087 -155.86629 19057 ft 464 kts 133°
2026-04-24 01:16 20.71820 -155.84155 19062 ft 463 kts 133°
2026-04-24 01:17 20.69598 -155.81700 19060 ft 462 kts 133°
2026-04-24 01:17 20.67374 -155.79217 19054 ft 462 kts 132°
2026-04-24 01:17 20.65159 -155.76726 19049 ft 462 kts 132°
2026-04-24 01:17 20.62950 -155.74232 19049 ft 461 kts 132°
2026-04-24 01:18 20.60741 -155.71733 19050 ft 460 kts 132°
2026-04-24 01:18 20.58563 -155.69264 19048 ft 461 kts 132°
2026-04-24 01:18 20.56361 -155.66771 19047 ft 462 kts 132°
2026-04-24 01:18 20.54151 -155.64269 19046 ft 463 kts 132°
2026-04-24 01:19 20.51942 -155.61769 18973 ft 463 kts 132°
2026-04-24 01:19 20.49731 -155.59267 18625 ft 462 kts 132°
2026-04-24 01:19 20.47530 -155.56776 18053 ft 458 kts 132°
2026-04-24 01:19 20.45372 -155.54338 17452 ft 454 kts 131°
2026-04-24 01:20 20.43198 -155.51883 16840 ft 450 kts 131°
2026-04-24 01:20 20.41089 -155.49503 16331 ft 441 kts 131°
2026-04-24 01:20 20.38985 -155.47130 16063 ft 437 kts 131°
2026-04-24 01:20 20.36878 -155.44754 15820 ft 436 kts 131°
2026-04-24 01:21 20.34810 -155.42424 15577 ft 435 kts 131°
2026-04-24 01:21 20.32715 -155.40062 15334 ft 434 kts 131°
2026-04-24 01:21 20.30638 -155.37723 15075 ft 432 kts 131°
2026-04-24 01:21 20.28580 -155.35406 14831 ft 430 kts 131°
2026-04-24 01:22 20.26524 -155.33093 14574 ft 428 kts 132°
2026-04-24 01:22 20.24507 -155.30824 14054 ft 419 kts 131°
2026-04-24 01:22 20.22514 -155.28586 13365 ft 416 kts 131°
2026-04-24 01:22 20.20534 -155.26358 12664 ft 416 kts 132°
2026-04-24 01:23 20.18574 -155.24161 11948 ft 403 kts 133°
2026-04-24 01:23 20.16529 -155.22165 11371 ft 396 kts 141°
2026-04-24 01:23 20.14220 -155.20607 11040 ft 383 kts 152°
2026-04-24 01:23 20.11924 -155.19469 10874 ft 353 kts 157°
2026-04-24 01:24 20.09662 -155.18504 10735 ft 353 kts 158°
2026-04-24 01:24 20.07369 -155.17551 10567 ft 339 kts 158°
2026-04-24 01:24 20.05256 -155.16641 10410 ft 315 kts 157°
2026-04-24 01:24 20.03284 -155.15759 10265 ft 301 kts 156°
2026-04-24 01:25 20.01381 -155.14883 10102 ft 296 kts 156°
2026-04-24 01:25 19.99518 -155.14014 9778 ft 291 kts 156°
2026-04-24 01:25 19.97668 -155.13141 9409 ft 289 kts 156°
2026-04-24 01:25 19.95916 -155.12140 9042 ft 286 kts 141°
2026-04-24 01:26 19.94587 -155.10562 8564 ft 286 kts 123°
2026-04-24 01:26 19.93533 -155.08765 8069 ft 287 kts 120°
2026-04-24 01:26 19.92525 -155.06944 7595 ft 288 kts 119°
2026-04-24 01:26 19.91519 -155.05121 7176 ft 287 kts 119°
2026-04-24 01:27 19.90513 -155.03294 6872 ft 277 kts 119°
2026-04-24 01:27 19.89569 -155.01584 6620 ft 263 kts 119°
2026-04-24 01:27 19.88663 -154.99945 6272 ft 256 kts 119°
2026-04-24 01:27 19.87768 -154.98323 5901 ft 251 kts 119°
2026-04-24 01:28 19.86890 -154.96733 5547 ft 246 kts 119°
2026-04-24 01:28 19.86031 -154.95183 5176 ft 243 kts 119°
2026-04-24 01:28 19.85177 -154.93651 4818 ft 242 kts 119°
2026-04-24 01:28 19.84314 -154.92123 4466 ft 240 kts 119°
2026-04-24 01:29 19.83453 -154.90614 4112 ft 238 kts 119°
2026-04-24 01:29 19.82604 -154.89136 3971 ft 234 kts 119°
2026-04-24 01:29 19.81749 -154.87648 3966 ft 237 kts 119°
2026-04-24 01:29 19.80895 -154.86171 3954 ft 229 kts 119°
2026-04-24 01:30 19.80062 -154.84737 3717 ft 228 kts 119°
2026-04-24 01:30 19.79231 -154.83310 3359 ft 226 kts 119°
2026-04-24 01:30 19.78408 -154.81905 3057 ft 222 kts 119°
2026-04-24 01:30 19.77614 -154.80525 2813 ft 215 kts 118°
2026-04-24 01:31 19.76844 -154.79198 2580 ft 212 kts 127°
2026-04-24 01:31 19.75646 -154.78308 2330 ft 213 kts 161°
2026-04-24 01:31 19.74160 -154.78264 2078 ft 214 kts 188°
2026-04-24 01:31 19.72721 -154.78566 1963 ft 209 kts 189°
2026-04-24 01:32 19.71292 -154.78867 1964 ft 208 kts 189°
2026-04-24 01:32 19.69866 -154.79160 1965 ft 208 kts 189°
2026-04-24 01:32 19.68430 -154.79454 1969 ft 207 kts 189°
2026-04-24 01:32 19.67001 -154.79746 1966 ft 208 kts 189°
2026-04-24 01:33 19.65574 -154.80037 1966 ft 208 kts 189°
2026-04-24 01:33 19.64166 -154.80327 1967 ft 208 kts 189°
2026-04-24 01:33 19.62717 -154.80627 1965 ft 209 kts 189°
2026-04-24 01:33 19.61296 -154.80927 1962 ft 209 kts 189°
2026-04-24 01:34 19.59864 -154.81192 1960 ft 208 kts 180°
2026-04-24 01:34 19.58484 -154.80852 1962 ft 201 kts 144°
2026-04-24 01:34 19.57616 -154.79768 1961 ft 193 kts 107°
2026-04-24 01:34 19.57435 -154.78378 1965 ft 189 kts 89°
2026-04-24 01:35 19.57395 -154.76996 1962 ft 189 kts 89°
2026-04-24 01:35 19.57345 -154.75584 1962 ft 190 kts 89°
2026-04-24 01:35 19.57295 -154.74205 1960 ft 190 kts 89°
2026-04-24 01:35 19.57242 -154.72803 1959 ft 188 kts 89°
2026-04-24 01:36 19.57188 -154.71419 1956 ft 189 kts 89°
2026-04-24 01:36 19.57135 -154.70023 1956 ft 189 kts 89°
2026-04-24 01:36 19.57081 -154.68630 1955 ft 188 kts 89°
2026-04-24 01:36 19.57047 -154.67236 1954 ft 187 kts 83°
2026-04-24 01:37 19.57509 -154.65988 1957 ft 185 kts 50°
2026-04-24 01:37 19.58422 -154.65010 1959 ft 186 kts 44°
2026-04-24 01:37 19.59345 -154.64066 1956 ft 184 kts 44°
2026-04-24 01:37 19.60259 -154.63119 1955 ft 184 kts 44°
2026-04-24 01:38 19.61191 -154.62183 1953 ft 184 kts 39°
2026-04-24 01:38 19.62383 -154.61691 1954 ft 189 kts
2026-04-24 01:38 19.63671 -154.62038 1957 ft 192 kts 339°
2026-04-24 01:38 19.64882 -154.62625 1953 ft 192 kts 339°
2026-04-24 01:39 19.65988 -154.63425 1947 ft 197 kts 313°
2026-04-24 01:39 19.66515 -154.64781 1951 ft 203 kts 281°
2026-04-24 01:39 19.66670 -154.66275 1949 ft 204 kts 278°
2026-04-24 01:39 19.66823 -154.67772 1948 ft 204 kts 279°
2026-04-24 01:40 19.67064 -154.69266 1949 ft 203 kts 287°
2026-04-24 01:40 19.67442 -154.70703 1948 ft 202 kts 289°
2026-04-24 01:40 19.67834 -154.72130 1947 ft 203 kts 289°
2026-04-24 01:40 19.68227 -154.73573 1947 ft 203 kts 289°
2026-04-24 01:41 19.68621 -154.75026 1949 ft 203 kts 289°
2026-04-24 01:41 19.69012 -154.76453 1951 ft 203 kts 289°
2026-04-24 01:41 19.69410 -154.77902 1951 ft 203 kts 289°
2026-04-24 01:41 19.69801 -154.79332 1951 ft 202 kts 289°
2026-04-24 01:42 19.70202 -154.80782 1954 ft 202 kts 289°
2026-04-24 01:42 19.70598 -154.82210 1957 ft 202 kts 289°
2026-04-24 01:42 19.70996 -154.83643 1956 ft 199 kts 289°
2026-04-24 01:42 19.71382 -154.84993 1949 ft 184 kts 292°
2026-04-24 01:43 19.71783 -154.86223 1952 ft 169 kts 289°
2026-04-24 01:43 19.71978 -154.87389 1961 ft 151 kts 278°
2026-04-24 01:43 19.72049 -154.88483 1958 ft 148 kts 276°
2026-04-24 01:43 19.72087 -154.89581 1955 ft 148 kts 275°
2026-04-24 01:44 19.72106 -154.90678 1977 ft 147 kts 274°
2026-04-24 01:44 19.72117 -154.91779 1857 ft 150 kts 274°
2026-04-24 01:44 19.72122 -154.92866 1623 ft 146 kts 274°
2026-04-24 01:44 19.72126 -154.93948 1467 ft 148 kts 273°
2026-04-24 01:45 19.72129 -154.95044 1295 ft 147 kts 273°
2026-04-24 01:45 19.72132 -154.96127 1126 ft 150 kts 273°
2026-04-24 01:45 19.72144 -154.97243 975 ft 150 kts 274°
2026-04-24 01:45 19.72142 -154.98337 844 ft 148 kts 272°
2026-04-24 01:46 19.72135 -154.99440 659 ft 150 kts 272°
2026-04-24 01:46 19.72139 -155.00555 476 ft 150 kts 272°
2026-04-24 01:46 19.72135 -155.01662 317 ft 149 kts 272°
2026-04-24 01:46 19.72135 -155.02766 134 ft 151 kts 272°
2026-04-24 01:47 19.72137 -155.03838 80 ft 135 kts 273°
2026-04-24 01:47 19.72141 -155.04721 64 ft 85 kts 274°
2026-04-24 01:47 19.72137 -155.05150 65 ft 49 kts 269°
2026-04-24 01:47 19.72074 -155.05345 65 ft 21 kts 222°
2026-04-24 01:48 19.72053 -155.05364 64 ft 0 kts 221°
2026-04-24 01:48 19.72050 -155.05366 64 ft 1 kts 221°
2026-04-24 01:48 19.72048 -155.05370 64 ft 0 kts 221°
2026-04-24 01:49 19.72047 -155.05370 64 ft 1 kts 222°
2026-04-24 01:49 19.72046 -155.05371 64 ft 1 kts 222°
2026-04-24 01:49 19.72026 -155.05362 64 ft 9 kts 143°
2026-04-24 01:50 19.72012 -155.05267 66 ft 15 kts 89°
2026-04-24 01:50 19.72012 -155.05141 67 ft 18 kts 90°
2026-04-24 01:50 19.72009 -155.04990 66 ft 22 kts 90°
2026-04-24 01:50 19.72009 -155.04808 66 ft 26 kts 90°
2026-04-24 01:51 19.72011 -155.04604 65 ft 29 kts 91°
2026-04-24 01:51 19.72010 -155.04385 64 ft 28 kts 88°
2026-04-24 01:51 19.72011 -155.04175 66 ft 26 kts 92°
2026-04-24 01:51 19.71953 -155.04066 67 ft 18 kts 176°
2026-04-24 01:52 19.71829 -155.04066 69 ft 17 kts 181°